Columbus, NE

12:28 AM CDT on July 24, 2017 (GMT -0500)
Columbus Municipal

Weather History for KOLU - January, 2013

Change the Weather History Date:

Thursday, January 24, 2013

  Actual Average Record
Temperature  
Mean Temperature 10 °F -  
Max Temperature 19 °F 35 °F 69 °F (1981)
Min Temperature 1 °F 14 °F -16 °F (1963)
Degree Days  
Heating Degree Days 55    
Moisture  
Dew Point -2 °F    
Average Humidity 57    
Maximum Humidity 72    
Minimum Humidity 45    
Precipitation  
Precipitation 0.00 in - - ()
Sea Level Pressure  
Sea Level Pressure 30.32 in    
Wind  
Wind Speed 11 mph (ESE)    
Max Wind Speed 15 mph    
Max Gust Speed 18 mph    
Visibility 10 miles    
Events      
Averages and records for this station are not official NWS values.
T = Trace of Precipitation, MM = Missing Value Source: NWS Daily Summary

Daily Weather History Graph

Daily Weather History Graph

Search for Another Location

Airport or City:

Trip Planner

Search our weather history database for the weather conditions in past years. The results will help you decide how hot, cold, wet, or windy it might be!

Date:

Astronomy

Jan. 24, 2013 Rise Set
Actual Time 7:47 AM CST 5:35 PM CST
Civil Twilight 7:17 AM CST 6:05 PM CST
Nautical Twilight 6:44 AM CST 6:39 PM CST
Astronomical Twilight 6:11 AM CST 7:12 PM CST
Moon 3:38 PM CST 5:46 AM CST
Length of Visible Light 10h 47m
Length of Day
9h 48m
Waxing Gibbous, 94% of the Moon is Illuminated
Jan 24
Waxing Gibbous
Jan 26
Full
Feb 3
Last Quarter
Feb 10
New
Feb 17
First Quarter

Hourly Weather History & Observations

Time (CST) Temp. Windchill Dew Point Humidity Pressure Visibility Wind Dir Wind Speed Gust Speed Precip Events Conditions
12:15 AM 10.4 °F -4.1 °F 1.4 °F 67% 30.48 in 10.0 mi NNE 11.5 mph - N/A   Clear
12:35 AM 8.6 °F -6.3 °F -0.4 °F 67% 30.49 in 10.0 mi NNE 11.5 mph - N/A   Clear
12:55 AM 8.6 °F -2.6 °F -0.4 °F 67% 30.48 in 10.0 mi NE 6.9 mph - N/A   Clear
1:15 AM 8.6 °F -5.5 °F -0.4 °F 67% 30.49 in 10.0 mi NE 10.4 mph - N/A   Clear
1:35 AM 8.6 °F -6.3 °F -2.2 °F 62% 30.50 in 10.0 mi ENE 11.5 mph - N/A   Clear
1:55 AM 6.8 °F -7.8 °F -2.2 °F 67% 30.50 in 10.0 mi NE 10.4 mph - N/A   Clear
2:15 AM 6.8 °F -8.6 °F -2.2 °F 67% 30.49 in 10.0 mi ENE 11.5 mph - N/A   Clear
2:35 AM 6.8 °F -7.8 °F -2.2 °F 67% 30.50 in 10.0 mi NE 10.4 mph - N/A   Clear
2:55 AM 5.0 °F -10.8 °F -2.2 °F 72% 30.50 in 10.0 mi ENE 11.5 mph - N/A   Clear
3:15 AM 3.2 °F -10.3 °F -4.0 °F 72% 30.50 in 10.0 mi East 8.1 mph - N/A   Clear
3:35 AM 3.2 °F -12.2 °F -4.0 °F 72% 30.49 in 10.0 mi ENE 10.4 mph - N/A   Clear
3:55 AM 3.2 °F -12.2 °F -5.8 °F 66% 30.49 in 10.0 mi ENE 10.4 mph - N/A   Clear
4:15 AM 3.2 °F -13.1 °F -5.8 °F 66% 30.47 in 10.0 mi ENE 11.5 mph - N/A   Clear
4:35 AM 1.4 °F -15.3 °F -5.8 °F 72% 30.47 in 10.0 mi ENE 11.5 mph - N/A   Clear
4:55 AM 1.4 °F -16.9 °F -5.8 °F 72% 30.47 in 10.0 mi ENE 13.8 mph - N/A   Clear
5:15 AM 1.4 °F -14.5 °F -5.8 °F 72% 30.47 in 10.0 mi East 10.4 mph - N/A   Clear
5:35 AM 1.4 °F -15.3 °F -7.6 °F 66% 30.47 in 10.0 mi ENE 11.5 mph - N/A   Clear
5:55 AM 1.4 °F -14.5 °F -7.6 °F 66% 30.47 in 10.0 mi East 10.4 mph - N/A   Clear
6:15 AM 1.4 °F -13.5 °F -7.6 °F 66% 30.45 in 10.0 mi East 9.2 mph - N/A   Clear
6:35 AM 1.4 °F -14.5 °F -7.6 °F 66% 30.45 in 10.0 mi East 10.4 mph - N/A   Clear
6:55 AM 1.4 °F -14.5 °F -7.6 °F 66% 30.44 in 10.0 mi East 10.4 mph - N/A   Clear
7:15 AM 1.4 °F -13.5 °F -7.6 °F 66% 30.45 in 10.0 mi East 9.2 mph - N/A   Clear
7:35 AM 1.4 °F -14.5 °F -7.6 °F 66% 30.46 in 10.0 mi East 10.4 mph - N/A   Clear
7:55 AM 1.4 °F -14.5 °F -5.8 °F 72% 30.46 in 10.0 mi East 10.4 mph - N/A   Clear
8:15 AM 1.4 °F -14.5 °F -5.8 °F 72% 30.44 in 10.0 mi East 10.4 mph - N/A   Clear
8:35 AM 3.2 °F -13.1 °F -5.8 °F 66% 30.43 in 10.0 mi ESE 11.5 mph - N/A   Clear
8:55 AM 3.2 °F -13.1 °F -5.8 °F 66% 30.45 in 10.0 mi East 11.5 mph - N/A   Clear
9:15 AM 3.2 °F -9.1 °F -5.8 °F 66% 30.45 in 10.0 mi ESE 6.9 mph - N/A   Clear
9:35 AM 5.0 °F -6.9 °F -5.8 °F 61% 30.47 in 10.0 mi East 6.9 mph - N/A   Clear
9:55 AM 5.0 °F -9.1 °F -5.8 °F 61% 30.45 in 10.0 mi ESE 9.2 mph - N/A   Clear
10:15 AM 6.8 °F -8.6 °F -5.8 °F 56% 30.43 in 10.0 mi ESE 11.5 mph - N/A   Clear
10:35 AM 6.8 °F -6.9 °F -4.0 °F 61% 30.43 in 10.0 mi SE 9.2 mph - N/A   Clear
10:55 AM 6.8 °F -6.9 °F -4.0 °F 61% 30.42 in 10.0 mi ESE 9.2 mph - N/A   Clear
11:15 AM 8.6 °F -6.3 °F -4.0 °F 57% 30.42 in 10.0 mi SSE 11.5 mph - N/A   Clear
11:35 AM 8.6 °F -6.3 °F -4.0 °F 57% 30.39 in 10.0 mi SE 11.5 mph - N/A   Clear
11:55 AM 10.4 °F -4.1 °F -4.0 °F 52% 30.38 in 10.0 mi SE 11.5 mph - N/A   Clear
12:15 PM 10.4 °F -4.1 °F -4.0 °F 52% 30.35 in 10.0 mi SE 11.5 mph - N/A   Clear
12:35 PM 12.2 °F -2.5 °F -2.2 °F 53% 30.35 in 10.0 mi SSE 12.7 mph - N/A   Scattered Clouds
12:55 PM 12.2 °F -1.0 °F -2.2 °F 53% 30.33 in 10.0 mi SSE 10.4 mph - N/A   Scattered Clouds
1:15 PM 14.0 °F -1.4 °F -2.2 °F 49% 30.30 in 10.0 mi SSE 15.0 mph - N/A   Partly Cloudy
1:35 PM 14.0 °F -0.8 °F -2.2 °F 49% 30.28 in 10.0 mi South 13.8 mph 18.4 mph N/A   Scattered Clouds
1:55 PM 14.0 °F -0.8 °F -2.2 °F 49% 30.26 in 10.0 mi SSE 13.8 mph - N/A   Mostly Cloudy
2:15 PM 14.0 °F -0.8 °F -4.0 °F 45% 30.24 in 10.0 mi SSE 13.8 mph - N/A   Overcast
2:35 PM 15.8 °F 0.9 °F -2.2 °F 45% 30.23 in 10.0 mi SSE 15.0 mph - N/A   Overcast
2:55 PM 15.8 °F 2.1 °F -2.2 °F 45% 30.22 in 10.0 mi SE 12.7 mph - N/A   Overcast
3:15 PM 15.8 °F 0.9 °F -2.2 °F 45% 30.21 in 10.0 mi SSE 15.0 mph - N/A   Overcast
3:35 PM 15.8 °F 2.1 °F -2.2 °F 45% 30.20 in 10.0 mi SSE 12.7 mph - N/A   Overcast
3:55 PM 15.8 °F 1.4 °F -2.2 °F 45% 30.20 in 10.0 mi SSE 13.8 mph 17.3 mph N/A   Overcast
4:15 PM 15.8 °F 2.1 °F -0.4 °F 49% 30.18 in 10.0 mi SSE 12.7 mph - N/A   Overcast
4:35 PM 15.8 °F 0.9 °F -0.4 °F 49% 30.17 in 10.0 mi SSE 15.0 mph - N/A   Overcast
4:55 PM 15.8 °F 1.4 °F -0.4 °F 49% 30.15 in 10.0 mi SSE 13.8 mph - N/A   Overcast
5:15 PM 15.8 °F 1.4 °F -0.4 °F 49% 30.14 in 10.0 mi SSE 13.8 mph - N/A   Overcast
5:35 PM 15.8 °F 3.4 °F -0.4 °F 49% 30.13 in 10.0 mi SE 10.4 mph - N/A   Overcast
5:55 PM 15.8 °F 0.9 °F -0.4 °F 49% 30.14 in 10.0 mi SSE 15.0 mph - N/A   Overcast
6:15 PM 17.6 °F 4.3 °F -0.4 °F 45% 30.14 in 10.0 mi SSE 12.7 mph 16.1 mph N/A   Overcast
6:35 PM 17.6 °F 8.2 °F 1.4 °F 49% 30.16 in 10.0 mi SSE 6.9 mph - N/A   Overcast
6:55 PM 17.6 °F 5.7 °F 1.4 °F 49% 30.14 in 10.0 mi SSE 10.4 mph - N/A   Overcast
7:15 PM 17.6 °F 6.4 °F 1.4 °F 49% 30.13 in 10.0 mi SSE 9.2 mph - N/A   Overcast
7:35 PM 17.6 °F 5.7 °F 1.4 °F 49% 30.14 in 10.0 mi SSE 10.4 mph - N/A   Overcast
7:55 PM 17.6 °F 5.0 °F 1.4 °F 49% 30.13 in 10.0 mi SSE 11.5 mph - N/A   Overcast
8:15 PM 17.6 °F 5.7 °F 1.4 °F 49% 30.13 in 10.0 mi SSE 10.4 mph - N/A   Overcast
8:35 PM 17.6 °F 8.2 °F 1.4 °F 49% 30.14 in 10.0 mi South 6.9 mph - N/A   Overcast
8:55 PM 19.4 °F 10.4 °F 1.4 °F 46% 30.14 in 10.0 mi SSE 6.9 mph - N/A   Overcast
9:15 PM 19.4 °F 11.5 °F 3.2 °F 49% 30.16 in 10.0 mi SSE 5.8 mph - N/A   Overcast
9:35 PM 19.4 °F 7.9 °F 3.2 °F 49% 30.13 in 10.0 mi SSE 10.4 mph - N/A   Mostly Cloudy
9:55 PM 19.4 °F 10.4 °F 3.2 °F 49% 30.14 in 10.0 mi SSE 6.9 mph - N/A   Clear
10:15 PM 19.4 °F 10.4 °F 3.2 °F 49% 30.13 in 10.0 mi SSE 6.9 mph - N/A   Clear
10:35 PM 19.4 °F 10.4 °F 3.2 °F 49% 30.13 in 10.0 mi SSE 6.9 mph - N/A   Clear
10:55 PM 19.4 °F 12.8 °F 3.2 °F 49% 30.15 in 10.0 mi SE 4.6 mph - N/A   Clear
11:15 PM 19.4 °F 14.3 °F 3.2 °F 49% 30.16 in 10.0 mi SSE 3.5 mph - N/A   Clear
11:35 PM 17.6 °F 9.3 °F 3.2 °F 53% 30.14 in 10.0 mi SSE 5.8 mph - N/A   Clear
11:55 PM 17.6 °F 12.3 °F 3.2 °F 53% 30.15 in 10.0 mi SSE 3.5 mph - N/A   Clear